Time,TemperatureF,DewpointF,PressureIn,WindDirection,WindDirectionDegrees,WindSpeedMPH,WindSpeedGustMPH,Humidity,HourlyPrecipIn,Conditions,Clouds,dailyrainin,SoftwareType,DateUTC
2013-01-18 00:02:00,22.8,9.0,30.30,NNW,328,3.6,8.6,55,0.00,,---,0.00,VWS V14.01,2013-01-18 05:02:00,
2013-01-18 00:03:00,22.8,9.0,30.30,North,350,2.3,3.6,55,0.00,,---,0.00,VWS V14.01,2013-01-18 05:03:00,
2013-01-18 00:04:00,22.8,9.0,30.30,North,350,2.3,3.6,55,0.00,,---,0.00,VWS V14.01,2013-01-18 05:04:00,
2013-01-18 00:06:00,22.8,9.0,30.30,NW,305,2.3,8.6,55,0.00,,---,0.00,VWS V14.01,2013-01-18 05:06:00,
2013-01-18 00:11:00,22.8,9.0,30.30,NW,305,0.0,4.0,55,0.00,,---,0.00,VWS V14.01,2013-01-18 05:11:00,
2013-01-18 00:16:00,22.8,9.0,30.30,NE,35,4.6,4.6,55,0.00,,---,0.00,VWS V14.01,2013-01-18 05:16:00,
2013-01-18 00:21:00,22.8,9.4,30.30,WNW,282,4.3,4.3,56,0.00,,---,0.00,VWS V14.01,2013-01-18 05:21:00,
2013-01-18 00:26:00,22.8,9.4,30.30,NE,35,7.9,7.9,56,0.00,,---,0.00,VWS V14.01,2013-01-18 05:26:00,
2013-01-18 00:32:00,22.8,9.4,30.30,NW,305,5.6,5.6,56,0.00,,---,0.00,VWS V14.01,2013-01-18 05:32:00,
2013-01-18 00:37:00,22.8,9.4,30.30,West,260,6.3,6.3,56,0.00,,---,0.00,VWS V14.01,2013-01-18 05:37:00,
2013-01-18 00:42:00,22.9,9.6,30.30,NW,305,4.6,5.0,56,0.00,,---,0.00,VWS V14.01,2013-01-18 05:42:00,
2013-01-18 00:47:00,22.9,9.6,30.30,West,260,4.3,6.3,56,0.00,,---,0.00,VWS V14.01,2013-01-18 05:47:00,
2013-01-18 00:52:00,22.9,9.6,30.30,North,350,3.0,3.0,56,0.00,,---,0.00,VWS V14.01,2013-01-18 05:52:00,
2013-01-18 00:57:00,22.9,9.2,30.30,NW,305,7.0,7.0,55,0.00,,---,0.00,VWS V14.01,2013-01-18 05:57:00,
2013-01-18 01:02:00,22.9,9.2,30.30,NW,305,1.3,1.3,55,0.00,,---,0.00,VWS V14.01,2013-01-18 06:02:00,
2013-01-18 01:07:00,22.9,9.2,30.30,NE,35,5.6,5.6,55,0.00,,---,0.00,VWS V14.01,2013-01-18 06:07:00,
2013-01-18 01:12:00,22.9,9.2,30.30,North,350,4.0,4.0,55,0.00,,---,0.00,VWS V14.01,2013-01-18 06:12:00,
2013-01-18 01:17:00,22.9,9.2,30.30,NNW,328,0.0,2.0,55,0.00,,---,0.00,VWS V14.01,2013-01-18 06:17:00,
2013-01-18 01:22:00,22.9,9.2,30.30,North,350,5.3,5.3,55,0.00,,---,0.00,VWS V14.01,2013-01-18 06:22:00,
2013-01-18 01:27:00,22.8,9.0,30.30,North,350,3.3,3.6,55,0.00,,---,0.00,VWS V14.01,2013-01-18 06:27:00,
2013-01-18 01:32:00,22.8,9.0,30.33,NE,35,4.6,4.6,55,0.00,,---,0.00,VWS V14.01,2013-01-18 06:32:00,
2013-01-18 01:37:00,22.8,9.0,30.33,North,350,3.0,7.3,55,0.00,,---,0.00,VWS V14.01,2013-01-18 06:37:00,
2013-01-18 01:43:00,22.8,9.0,30.33,North,350,2.0,3.6,55,0.00,,---,0.00,VWS V14.01,2013-01-18 06:43:00,
2013-01-18 01:48:00,22.8,9.0,30.33,NW,305,0.0,4.6,55,0.00,,---,0.00,VWS V14.01,2013-01-18 06:48:00,
2013-01-18 01:53:00,22.8,9.4,30.33,West,260,2.0,2.3,56,0.00,,---,0.00,VWS V14.01,2013-01-18 06:53:00,
2013-01-18 01:58:00,22.8,9.4,30.33,NW,305,0.0,0.0,56,0.00,,---,0.00,VWS V14.01,2013-01-18 06:58:00,
2013-01-18 02:03:00,22.8,9.4,30.33,NW,305,4.3,4.3,56,0.00,,---,0.00,VWS V14.01,2013-01-18 07:03:00,
2013-01-18 02:08:00,22.8,9.4,30.33,NNW,328,7.9,7.9,56,0.00,,---,0.00,VWS V14.01,2013-01-18 07:08:00,
2013-01-18 02:13:00,22.8,9.4,30.33,North,350,5.6,5.6,56,0.00,,---,0.00,VWS V14.01,2013-01-18 07:13:00,
2013-01-18 02:18:00,22.8,9.4,30.33,West,260,4.3,4.3,56,0.00,,---,0.00,VWS V14.01,2013-01-18 07:18:00,
2013-01-18 02:23:00,22.8,9.4,30.33,WNW,282,6.0,6.0,56,0.00,,---,0.00,VWS V14.01,2013-01-18 07:23:00,
2013-01-18 02:28:00,22.8,9.4,30.33,NW,305,7.0,7.0,56,0.00,,---,0.00,VWS V14.01,2013-01-18 07:28:00,
2013-01-18 02:33:00,22.8,9.4,30.33,West,260,4.0,6.3,56,0.00,,---,0.00,VWS V14.01,2013-01-18 07:33:00,
2013-01-18 02:38:00,22.8,9.4,30.33,West,260,5.0,5.0,56,0.00,,---,0.00,VWS V14.01,2013-01-18 07:38:00,
2013-01-18 02:43:00,22.8,9.4,30.33,NW,305,0.0,1.7,56,0.00,,---,0.00,VWS V14.01,2013-01-18 07:43:00,
2013-01-18 02:49:00,22.8,9.4,30.33,NW,305,3.3,3.3,56,0.00,,---,0.00,VWS V14.01,2013-01-18 07:49:00,
2013-01-18 02:54:00,22.8,9.4,30.33,NW,305,0.0,0.0,56,0.00,,---,0.00,VWS V14.01,2013-01-18 07:54:00,
2013-01-18 02:59:00,22.8,9.4,30.33,West,260,4.0,4.0,56,0.00,,---,0.00,VWS V14.01,2013-01-18 07:59:00,
2013-01-18 03:04:00,22.8,9.4,30.33,NW,305,3.0,3.0,56,0.00,,---,0.00,VWS V14.01,2013-01-18 08:04:00,
2013-01-18 03:09:00,22.8,9.4,30.33,SW,215,0.0,3.0,56,0.00,,---,0.00,VWS V14.01,2013-01-18 08:09:00,
2013-01-18 03:14:00,22.8,9.4,30.33,WNW,282,10.6,10.6,56,0.00,,---,0.00,VWS V14.01,2013-01-18 08:14:00,
2013-01-18 03:19:00,22.8,9.4,30.33,NE,35,0.0,0.0,56,0.00,,---,0.00,VWS V14.01,2013-01-18 08:19:00,
2013-01-18 03:24:00,22.8,9.4,30.33,NW,305,3.3,3.3,56,0.00,,---,0.00,VWS V14.01,2013-01-18 08:24:00,
2013-01-18 03:29:00,22.6,9.3,30.33,NW,305,0.0,2.0,56,0.00,,---,0.00,VWS V14.01,2013-01-18 08:29:00,
2013-01-18 03:34:00,22.6,9.3,30.33,NW,305,1.7,1.7,56,0.00,,---,0.00,VWS V14.01,2013-01-18 08:34:00,
2013-01-18 03:39:00,22.6,9.3,30.33,North,350,0.0,3.3,56,0.00,,---,0.00,VWS V14.01,2013-01-18 08:39:00,
2013-01-18 03:44:00,22.6,9.3,30.33,North,350,1.3,4.0,56,0.00,,---,0.00,VWS V14.01,2013-01-18 08:44:00,
2013-01-18 03:49:00,22.6,9.3,30.33,North,350,0.0,0.0,56,0.00,,---,0.00,VWS V14.01,2013-01-18 08:49:00,
2013-01-18 03:54:00,22.6,9.3,30.33,North,350,0.0,0.0,56,0.00,,---,0.00,VWS V14.01,2013-01-18 08:54:00,
2013-01-18 03:59:00,22.6,9.3,30.33,NW,305,3.3,3.3,56,0.00,,---,0.00,VWS V14.01,2013-01-18 08:59:00,
2013-01-18 04:04:00,22.6,9.3,30.33,NW,305,3.0,3.0,56,0.00,,---,0.00,VWS V14.01,2013-01-18 09:04:00,
2013-01-18 04:09:00,22.4,9.1,30.33,North,350,0.0,0.0,56,0.00,,---,0.00,VWS V14.01,2013-01-18 09:09:00,
2013-01-18 04:14:00,22.4,9.1,30.33,NW,305,0.0,0.0,56,0.00,,---,0.00,VWS V14.01,2013-01-18 09:14:00,
2013-01-18 04:19:00,22.4,9.1,30.33,NW,305,0.0,2.0,56,0.00,,---,0.00,VWS V14.01,2013-01-18 09:19:00,
2013-01-18 04:25:00,22.4,9.1,30.33,North,350,0.0,0.0,56,0.00,,---,0.00,VWS V14.01,2013-01-18 09:25:00,
2013-01-18 04:30:00,22.0,8.8,30.33,West,260,0.0,0.0,56,0.00,,---,0.00,VWS V14.01,2013-01-18 09:30:00,
2013-01-18 04:35:00,22.0,8.8,30.33,NW,305,1.3,1.3,56,0.00,,---,0.00,VWS V14.01,2013-01-18 09:35:00,
2013-01-18 04:40:00,21.9,8.6,30.33,WNW,282,0.0,0.0,56,0.00,,---,0.00,VWS V14.01,2013-01-18 09:40:00,
2013-01-18 04:45:00,21.5,8.2,30.33,NE,35,0.0,0.0,56,0.00,,---,0.00,VWS V14.01,2013-01-18 09:45:00,
2013-01-18 04:50:00,21.3,8.1,30.33,NE,35,0.0,0.0,56,0.00,,---,0.00,VWS V14.01,2013-01-18 09:50:00,
2013-01-18 04:55:00,21.1,7.9,30.33,NE,35,0.0,0.0,56,0.00,,---,0.00,VWS V14.01,2013-01-18 09:55:00,
2013-01-18 05:00:00,21.0,7.7,30.33,SW,215,0.0,0.0,56,0.00,,---,0.00,VWS V14.01,2013-01-18 10:00:00,
2013-01-18 05:05:00,20.6,7.8,30.33,SW,215,0.0,0.0,57,0.00,,---,0.00,VWS V14.01,2013-01-18 10:05:00,
2013-01-18 05:10:00,20.6,7.8,30.33,SW,215,0.0,0.0,57,0.00,,---,0.00,VWS V14.01,2013-01-18 10:10:00,
2013-01-18 05:15:00,20.2,7.5,30.33,SW,215,0.0,0.0,57,0.00,,---,0.00,VWS V14.01,2013-01-18 10:15:00,
2013-01-18 05:20:00,20.2,7.5,30.33,SW,215,0.0,0.0,57,0.00,,---,0.00,VWS V14.01,2013-01-18 10:20:00,
2013-01-18 05:25:00,20.2,7.5,30.33,SW,215,0.0,0.0,57,0.00,,---,0.00,VWS V14.01,2013-01-18 10:25:00,
2013-01-18 05:30:00,20.2,7.5,30.33,SW,215,0.0,0.0,57,0.00,,---,0.00,VWS V14.01,2013-01-18 10:30:00,
2013-01-18 05:35:00,20.2,7.5,30.33,SW,215,0.0,0.0,57,0.00,,---,0.00,VWS V14.01,2013-01-18 10:35:00,
2013-01-18 05:40:00,20.2,7.8,30.33,ESE,102,0.0,0.0,58,0.00,,---,0.00,VWS V14.01,2013-01-18 10:40:00,
2013-01-18 05:45:00,20.2,7.8,30.33,SE,125,0.0,0.0,58,0.00,,---,0.00,VWS V14.01,2013-01-18 10:45:00,
2013-01-18 05:51:00,20.4,8.0,30.33,SE,125,0.0,0.0,58,0.00,,---,0.00,VWS V14.01,2013-01-18 10:51:00,
2013-01-18 05:56:00,20.4,8.0,30.33,SE,125,0.0,0.0,58,0.00,,---,0.00,VWS V14.01,2013-01-18 10:56:00,
2013-01-18 06:01:00,20.4,8.4,30.33,SE,125,0.0,0.0,59,0.00,,---,0.00,VWS V14.01,2013-01-18 11:01:00,
2013-01-18 06:06:00,20.4,8.4,30.33,WSW,238,0.0,0.0,59,0.00,,---,0.00,VWS V14.01,2013-01-18 11:06:00,
2013-01-18 06:11:00,20.6,8.6,30.33,SW,215,0.0,0.0,59,0.00,,---,0.00,VWS V14.01,2013-01-18 11:11:00,
2013-01-18 06:16:00,20.6,8.6,30.33,West,260,0.0,0.0,59,0.00,,---,0.00,VWS V14.01,2013-01-18 11:16:00,
2013-01-18 06:21:00,20.6,8.9,30.33,South,170,0.0,0.0,60,0.00,,---,0.00,VWS V14.01,2013-01-18 11:21:00,
2013-01-18 06:26:00,20.6,8.9,30.33,SE,125,0.0,0.0,60,0.00,,---,0.00,VWS V14.01,2013-01-18 11:26:00,
2013-01-18 06:31:00,20.6,8.9,30.33,SE,125,0.0,0.0,60,0.00,,---,0.00,VWS V14.01,2013-01-18 11:31:00,
2013-01-18 06:36:00,20.8,9.1,30.33,SE,125,0.0,0.0,60,0.00,,---,0.00,VWS V14.01,2013-01-18 11:36:00,
2013-01-18 06:41:00,20.8,9.1,30.33,SE,125,0.0,0.0,60,0.00,,---,0.00,VWS V14.01,2013-01-18 11:41:00,
2013-01-18 06:46:00,20.6,8.9,30.33,South,170,0.0,0.0,60,0.00,,---,0.00,VWS V14.01,2013-01-18 11:46:00,
2013-01-18 06:51:00,20.8,9.1,30.33,SE,125,0.0,0.0,60,0.00,,---,0.00,VWS V14.01,2013-01-18 11:51:00,
2013-01-18 06:56:00,20.6,8.9,30.33,SE,125,0.0,0.0,60,0.00,,---,0.00,VWS V14.01,2013-01-18 11:56:00,
2013-01-18 07:01:00,20.6,8.9,30.33,NE,35,0.0,0.0,60,0.00,,---,0.00,VWS V14.01,2013-01-18 12:01:00,
2013-01-18 07:06:00,20.6,8.9,30.33,South,170,0.0,0.0,60,0.00,,---,0.00,VWS V14.01,2013-01-18 12:06:00,
2013-01-18 07:11:00,20.6,9.3,30.33,South,170,0.0,0.0,61,0.00,,---,0.00,VWS V14.01,2013-01-18 12:11:00,
2013-01-18 07:16:00,20.6,9.3,30.33,South,170,0.0,0.0,61,0.00,,---,0.00,VWS V14.01,2013-01-18 12:16:00,
2013-01-18 07:21:00,20.6,9.3,30.33,South,170,0.0,0.0,61,0.00,,---,0.00,VWS V14.01,2013-01-18 12:21:00,
2013-01-18 07:26:00,20.8,9.5,30.33,South,170,0.0,0.0,61,0.00,,---,0.00,VWS V14.01,2013-01-18 12:26:00,
2013-01-18 07:32:00,20.8,9.5,30.33,South,170,0.0,0.0,61,0.00,,---,0.00,VWS V14.01,2013-01-18 12:32:00,
2013-01-18 07:37:00,20.8,9.1,30.33,South,170,0.0,3.0,60,0.00,,---,0.00,VWS V14.01,2013-01-18 12:37:00,
2013-01-18 07:42:00,20.8,9.1,30.33,SSE,148,5.6,5.6,60,0.00,,---,0.00,VWS V14.01,2013-01-18 12:42:00,
2013-01-18 07:47:00,20.8,9.1,30.33,South,170,3.3,3.3,60,0.00,,---,0.00,VWS V14.01,2013-01-18 12:47:00,
2013-01-18 07:52:00,20.6,9.3,30.33,SE,125,0.0,0.0,61,0.00,,---,0.00,VWS V14.01,2013-01-18 12:52:00,
2013-01-18 07:57:00,20.6,9.3,30.33,South,170,3.0,3.0,61,0.00,,---,0.00,VWS V14.01,2013-01-18 12:57:00,
2013-01-18 08:02:00,20.8,9.5,30.33,South,170,2.0,4.3,61,0.00,,---,0.00,VWS V14.01,2013-01-18 13:02:00,
2013-01-18 08:07:00,21.0,10.0,30.33,SE,125,3.3,3.3,62,0.00,,---,0.00,VWS V14.01,2013-01-18 13:07:00,
2013-01-18 08:12:00,21.0,10.0,30.33,SE,125,0.0,4.6,62,0.00,,---,0.00,VWS V14.01,2013-01-18 13:12:00,
2013-01-18 08:17:00,21.0,10.0,30.33,South,170,0.0,3.3,62,0.00,,---,0.00,VWS V14.01,2013-01-18 13:17:00,
2013-01-18 08:22:00,21.0,10.0,30.33,South,170,0.0,0.0,62,0.00,,---,0.00,VWS V14.01,2013-01-18 13:22:00,
2013-01-18 08:27:00,21.1,10.2,30.33,SE,125,0.0,3.6,62,0.00,,---,0.00,VWS V14.01,2013-01-18 13:27:00,
2013-01-18 08:32:00,21.1,10.2,30.33,South,170,4.0,4.3,62,0.00,,---,0.00,VWS V14.01,2013-01-18 13:32:00,
2013-01-18 08:37:00,21.1,10.2,30.33,South,170,2.3,4.6,62,0.00,,---,0.00,VWS V14.01,2013-01-18 13:37:00,
2013-01-18 08:42:00,21.1,10.2,30.33,South,170,0.0,2.0,62,0.00,,---,0.00,VWS V14.01,2013-01-18 13:42:00,
2013-01-18 08:47:00,21.3,10.7,30.33,South,170,4.6,4.6,63,0.00,,---,0.00,VWS V14.01,2013-01-18 13:47:00,
2013-01-18 08:52:00,21.3,10.7,30.33,SW,215,3.6,4.0,63,0.00,,---,0.00,VWS V14.01,2013-01-18 13:52:00,
2013-01-18 08:57:00,21.7,11.4,30.33,SE,125,2.3,4.6,64,0.00,,---,0.00,VWS V14.01,2013-01-18 13:57:00,
2013-01-18 09:02:00,21.9,11.6,30.33,South,170,5.3,8.9,64,0.00,,---,0.00,VWS V14.01,2013-01-18 14:02:00,
2013-01-18 09:08:00,22.0,11.7,30.33,South,170,4.3,8.6,64,0.00,,---,0.00,VWS V14.01,2013-01-18 14:08:00,
2013-01-18 09:13:00,22.4,12.1,30.33,SW,215,9.3,9.3,64,0.00,,---,0.00,VWS V14.01,2013-01-18 14:13:00,
2013-01-18 09:18:00,22.6,12.2,30.33,SW,215,4.3,10.9,64,0.00,,---,0.00,VWS V14.01,2013-01-18 14:18:00,
2013-01-18 09:23:00,22.9,12.6,30.33,SW,215,5.6,5.6,64,0.00,,---,0.00,VWS V14.01,2013-01-18 14:23:00,
2013-01-18 09:28:00,23.1,12.4,30.33,South,170,4.6,5.0,63,0.00,,---,0.00,VWS V14.01,2013-01-18 14:28:00,
2013-01-18 09:33:00,23.3,12.6,30.33,South,170,5.6,5.6,63,0.00,,---,0.00,VWS V14.01,2013-01-18 14:33:00,
2013-01-18 09:38:00,23.7,12.9,30.33,SW,215,5.3,5.3,63,0.00,,---,0.00,VWS V14.01,2013-01-18 14:38:00,
2013-01-18 09:43:00,23.7,12.9,30.33,WSW,238,6.0,6.0,63,0.00,,---,0.00,VWS V14.01,2013-01-18 14:43:00,
2013-01-18 09:48:00,23.8,13.1,30.33,South,170,7.0,7.0,63,0.00,,---,0.00,VWS V14.01,2013-01-18 14:48:00,
2013-01-18 09:53:00,23.8,13.1,30.33,South,170,5.6,8.6,63,0.00,,---,0.00,VWS V14.01,2013-01-18 14:53:00,
2013-01-18 09:58:00,24.0,12.9,30.33,SW,215,8.6,8.6,62,0.00,,---,0.00,VWS V14.01,2013-01-18 14:58:00,
2013-01-18 10:03:00,24.2,13.1,30.33,WSW,238,4.6,6.3,62,0.00,,---,0.00,VWS V14.01,2013-01-18 15:03:00,
2013-01-18 10:08:00,24.4,13.2,30.33,WSW,238,6.3,11.6,62,0.00,,---,0.00,VWS V14.01,2013-01-18 15:08:00,
2013-01-18 10:13:00,24.7,13.6,30.33,South,170,6.0,10.6,62,0.00,,---,0.00,VWS V14.01,2013-01-18 15:13:00,
2013-01-18 10:18:00,24.7,13.2,30.33,South,170,8.6,8.6,61,0.00,,---,0.00,VWS V14.01,2013-01-18 15:18:00,
2013-01-18 10:23:00,24.9,13.0,30.33,SW,215,6.3,6.3,60,0.00,,---,0.00,VWS V14.01,2013-01-18 15:23:00,
2013-01-18 10:28:00,25.1,13.2,30.33,South,170,16.2,16.2,60,0.00,,---,0.00,VWS V14.01,2013-01-18 15:28:00,
2013-01-18 10:33:00,25.3,13.4,30.33,SW,215,7.0,8.6,60,0.00,,---,0.00,VWS V14.01,2013-01-18 15:33:00,
2013-01-18 10:38:00,25.3,13.0,30.33,SW,215,8.9,8.9,59,0.00,,---,0.00,VWS V14.01,2013-01-18 15:38:00,
2013-01-18 10:43:00,25.5,13.1,30.33,SW,215,10.9,10.9,59,0.00,,---,0.00,VWS V14.01,2013-01-18 15:43:00,
2013-01-18 10:49:00,25.5,12.8,30.33,SW,215,11.3,14.2,58,0.00,,---,0.00,VWS V14.01,2013-01-18 15:49:00,
2013-01-18 10:54:00,25.6,12.9,30.33,West,260,10.6,12.9,58,0.00,,---,0.00,VWS V14.01,2013-01-18 15:54:00,
2013-01-18 10:59:00,26.4,13.2,30.33,SW,215,6.3,7.3,57,0.00,,---,0.00,VWS V14.01,2013-01-18 15:59:00,
2013-01-18 11:04:00,26.7,13.1,30.33,West,260,4.3,11.3,56,0.00,,---,0.00,VWS V14.01,2013-01-18 16:04:00,
2013-01-18 11:09:00,26.9,13.3,30.33,SW,215,15.2,15.2,56,0.00,,---,0.00,VWS V14.01,2013-01-18 16:09:00,
2013-01-18 11:14:00,27.3,13.2,30.33,SW,215,19.5,19.5,55,0.00,,---,0.00,VWS V14.01,2013-01-18 16:14:00,
2013-01-18 11:19:00,27.6,13.6,30.30,SW,215,15.6,15.6,55,0.00,,---,0.00,VWS V14.01,2013-01-18 16:19:00,
2013-01-18 11:24:00,28.0,13.5,30.30,SW,215,12.9,12.9,54,0.00,,---,0.00,VWS V14.01,2013-01-18 16:24:00,
2013-01-18 11:29:00,28.2,13.2,30.30,South,170,6.3,13.6,53,0.00,,---,0.00,VWS V14.01,2013-01-18 16:29:00,
2013-01-18 11:34:00,28.9,13.9,30.30,SW,215,7.3,7.3,53,0.00,,---,0.00,VWS V14.01,2013-01-18 16:34:00,
2013-01-18 11:39:00,28.9,13.9,30.30,South,170,9.6,9.6,53,0.00,,---,0.00,VWS V14.01,2013-01-18 16:39:00,
2013-01-18 11:44:00,28.9,13.9,30.30,West,260,11.6,11.6,53,0.00,,---,0.00,VWS V14.01,2013-01-18 16:44:00,
2013-01-18 11:49:00,29.1,13.6,30.27,SW,215,9.3,11.9,52,0.00,,---,0.00,VWS V14.01,2013-01-18 16:49:00,
2013-01-18 11:54:00,29.6,14.1,30.27,SW,215,4.3,14.9,52,0.00,,---,0.00,VWS V14.01,2013-01-18 16:54:00,
2013-01-18 11:59:00,30.3,14.8,30.27,SW,215,8.3,9.9,52,0.00,,---,0.00,VWS V14.01,2013-01-18 16:59:00,
2013-01-18 12:04:00,30.5,14.5,30.24,South,170,5.0,5.0,51,0.00,,---,0.00,VWS V14.01,2013-01-18 17:04:00,
2013-01-18 12:09:00,30.7,14.7,30.24,SW,215,10.9,15.2,51,0.00,,---,0.00,VWS V14.01,2013-01-18 17:09:00,
2013-01-18 12:14:00,30.9,14.9,30.24,NW,305,11.3,11.3,51,0.00,,---,0.00,VWS V14.01,2013-01-18 17:14:00,
2013-01-18 12:19:00,30.5,14.5,30.24,South,170,10.9,15.2,51,0.00,,---,0.00,VWS V14.01,2013-01-18 17:19:00,
2013-01-18 12:24:00,30.5,14.5,30.24,West,260,10.9,11.3,51,0.00,,---,0.00,VWS V14.01,2013-01-18 17:24:00,
2013-01-18 12:30:00,30.3,14.4,30.24,SW,215,15.2,15.2,51,0.00,,---,0.00,VWS V14.01,2013-01-18 17:30:00,
2013-01-18 12:35:00,30.1,14.2,30.24,ESE,102,18.5,18.5,51,0.00,,---,0.00,VWS V14.01,2013-01-18 17:35:00,
2013-01-18 12:40:00,30.3,14.8,30.24,West,260,15.2,15.2,52,0.00,,---,0.00,VWS V14.01,2013-01-18 17:40:00,
2013-01-18 12:45:00,30.3,14.8,30.24,South,170,9.3,9.6,52,0.00,,---,0.00,VWS V14.01,2013-01-18 17:45:00,
2013-01-18 12:50:00,30.1,14.6,30.21,South,170,9.6,9.6,52,0.00,,---,0.00,VWS V14.01,2013-01-18 17:50:00,
2013-01-18 12:55:00,30.3,14.8,30.21,SW,215,10.9,11.6,52,0.00,,---,0.00,VWS V14.01,2013-01-18 17:55:00,
2013-01-18 13:00:00,30.3,14.8,30.21,SW,215,7.0,10.6,52,0.00,,---,0.00,VWS V14.01,2013-01-18 18:00:00,
2013-01-18 13:05:00,30.3,14.8,30.18,West,260,14.2,14.2,52,0.00,,---,0.00,VWS V14.01,2013-01-18 18:05:00,
2013-01-18 13:10:00,30.5,15.0,30.18,South,170,11.9,11.9,52,0.00,,---,0.00,VWS V14.01,2013-01-18 18:10:00,
2013-01-18 13:15:00,30.5,15.0,30.18,South,170,7.3,19.2,52,0.00,,---,0.00,VWS V14.01,2013-01-18 18:15:00,
2013-01-18 13:20:00,30.7,15.6,30.18,West,260,8.3,15.9,53,0.00,,---,0.00,VWS V14.01,2013-01-18 18:20:00,
2013-01-18 13:25:00,30.7,15.6,30.18,South,170,8.6,11.3,53,0.00,,---,0.00,VWS V14.01,2013-01-18 18:25:00,
2013-01-18 13:30:00,31.0,15.9,30.18,SW,215,5.0,14.2,53,0.00,,---,0.00,VWS V14.01,2013-01-18 18:30:00,
2013-01-18 13:36:00,31.6,16.4,30.18,South,170,9.6,11.3,53,0.00,,---,0.00,VWS V14.01,2013-01-18 18:36:00,
2013-01-18 13:41:00,31.8,16.6,30.18,SW,215,15.2,15.2,53,0.00,,---,0.00,VWS V14.01,2013-01-18 18:41:00,
2013-01-18 13:46:00,31.8,16.6,30.18,SW,215,11.6,18.2,53,0.00,,---,0.00,VWS V14.01,2013-01-18 18:46:00,
2013-01-18 13:51:00,32.3,17.1,30.15,SW,215,6.0,10.9,53,0.00,,---,0.00,VWS V14.01,2013-01-18 18:51:00,
2013-01-18 13:56:00,32.5,17.3,30.15,South,170,25.5,25.5,53,0.00,,---,0.00,VWS V14.01,2013-01-18 18:56:00,
2013-01-18 14:01:00,32.5,17.3,30.15,SW,215,9.6,14.6,53,0.00,,---,0.00,VWS V14.01,2013-01-18 19:01:00,
2013-01-18 14:06:00,32.5,17.3,30.15,South,170,9.3,9.3,53,0.00,,---,0.00,VWS V14.01,2013-01-18 19:06:00,
2013-01-18 14:11:00,32.5,17.3,30.15,SW,215,8.9,9.3,53,0.00,,---,0.00,VWS V14.01,2013-01-18 19:11:00,
2013-01-18 14:16:00,32.8,17.6,30.12,SE,125,11.6,11.6,53,0.00,,---,0.00,VWS V14.01,2013-01-18 19:16:00,
2013-01-18 14:21:00,32.8,17.2,30.12,NW,305,8.3,8.3,52,0.00,,---,0.00,VWS V14.01,2013-01-18 19:21:00,
2013-01-18 14:26:00,33.0,17.8,30.12,NNW,328,6.3,6.3,53,0.00,,---,0.00,VWS V14.01,2013-01-18 19:26:00,
2013-01-18 14:31:00,33.0,17.8,30.12,SW,215,10.9,15.9,53,0.00,,---,0.00,VWS V14.01,2013-01-18 19:31:00,
2013-01-18 14:36:00,33.0,17.8,30.12,South,170,11.6,12.6,53,0.00,,---,0.00,VWS V14.01,2013-01-18 19:36:00,
2013-01-18 14:42:00,33.2,17.9,30.12,South,170,21.2,21.2,53,0.00,,---,0.00,VWS V14.01,2013-01-18 19:42:00,
2013-01-18 14:47:00,33.2,17.5,30.12,SW,215,11.6,14.6,52,0.00,,---,0.00,VWS V14.01,2013-01-18 19:47:00,
2013-01-18 14:52:00,33.0,17.8,30.12,SW,215,15.6,15.6,53,0.00,,---,0.00,VWS V14.01,2013-01-18 19:52:00,
2013-01-18 14:57:00,33.2,17.5,30.12,WSW,238,18.2,18.9,52,0.00,,---,0.00,VWS V14.01,2013-01-18 19:57:00,
2013-01-18 15:02:00,33.2,17.5,30.12,SW,215,8.6,8.6,52,0.00,,---,0.00,VWS V14.01,2013-01-18 20:02:00,
2013-01-18 15:07:00,33.6,17.8,30.12,South,170,19.2,19.2,52,0.00,,---,0.00,VWS V14.01,2013-01-18 20:07:00,
2013-01-18 15:12:00,33.9,18.2,30.09,SW,215,30.8,30.8,52,0.00,,---,0.00,VWS V14.01,2013-01-18 20:12:00,
2013-01-18 15:17:00,34.3,18.5,30.09,South,170,8.3,17.9,52,0.00,,---,0.00,VWS V14.01,2013-01-18 20:17:00,
2013-01-18 15:22:00,34.5,18.7,30.09,SW,215,15.2,15.6,52,0.00,,---,0.00,VWS V14.01,2013-01-18 20:22:00,
2013-01-18 15:27:00,33.9,18.2,30.09,SE,125,21.5,21.5,52,0.00,,---,0.00,VWS V14.01,2013-01-18 20:27:00,
2013-01-18 15:32:00,34.3,18.5,30.09,South,170,7.9,8.6,52,0.00,,---,0.00,VWS V14.01,2013-01-18 20:32:00,
2013-01-18 15:37:00,35.0,18.7,30.09,SW,215,14.9,14.9,51,0.00,,---,0.00,VWS V14.01,2013-01-18 20:37:00,
2013-01-18 15:42:00,35.0,18.7,30.09,SW,215,15.9,15.9,51,0.00,,---,0.00,VWS V14.01,2013-01-18 20:42:00,
2013-01-18 15:48:00,34.8,19.0,30.06,South,170,11.9,21.5,52,0.00,,---,0.00,VWS V14.01,2013-01-18 20:48:00,
2013-01-18 15:53:00,34.8,19.0,30.06,SW,215,10.3,11.9,52,0.00,,---,0.00,VWS V14.01,2013-01-18 20:53:00,
2013-01-18 15:58:00,34.8,19.0,30.06,SW,215,11.9,11.9,52,0.00,,---,0.00,VWS V14.01,2013-01-18 20:58:00,
2013-01-18 16:03:00,34.8,19.0,30.06,South,170,10.9,13.6,52,0.00,,---,0.00,VWS V14.01,2013-01-18 21:03:00,
2013-01-18 16:08:00,34.8,19.0,30.06,South,170,8.9,8.9,52,0.00,,---,0.00,VWS V14.01,2013-01-18 21:08:00,
2013-01-18 16:13:00,34.8,19.0,30.06,SW,215,22.5,22.5,52,0.00,,---,0.00,VWS V14.01,2013-01-18 21:13:00,
2013-01-18 16:18:00,34.6,18.8,30.03,SW,215,14.9,14.9,52,0.00,,---,0.00,VWS V14.01,2013-01-18 21:18:00,
2013-01-18 16:23:00,34.5,18.7,30.03,SW,215,14.9,14.9,52,0.00,,---,0.00,VWS V14.01,2013-01-18 21:23:00,
2013-01-18 16:28:00,34.5,18.7,30.03,West,260,9.3,9.3,52,0.00,,---,0.00,VWS V14.01,2013-01-18 21:28:00,
2013-01-18 16:33:00,34.3,18.5,30.03,SE,125,18.2,18.2,52,0.00,,---,0.00,VWS V14.01,2013-01-18 21:33:00,
2013-01-18 16:38:00,34.3,18.5,30.03,SE,125,8.3,8.3,52,0.00,,---,0.00,VWS V14.01,2013-01-18 21:38:00,
2013-01-18 16:43:00,34.3,18.9,30.03,SE,125,19.2,19.2,53,0.00,,---,0.00,VWS V14.01,2013-01-18 21:43:00,
2013-01-18 16:49:00,34.3,18.9,30.03,South,170,14.2,19.2,53,0.00,,---,0.00,VWS V14.01,2013-01-18 21:49:00,
2013-01-18 16:54:00,34.3,18.9,30.03,South,170,14.2,14.2,53,0.00,,---,0.00,VWS V14.01,2013-01-18 21:54:00,
2013-01-18 16:59:00,34.5,19.1,30.03,South,170,13.9,13.9,53,0.00,,---,0.00,VWS V14.01,2013-01-18 21:59:00,
2013-01-18 17:04:00,34.5,19.1,30.03,South,170,13.9,13.9,53,0.00,,---,0.00,VWS V14.01,2013-01-18 22:04:00,
2013-01-18 17:09:00,34.6,19.3,30.03,South,170,13.9,13.9,53,0.00,,---,0.00,VWS V14.01,2013-01-18 22:09:00,
2013-01-18 17:14:00,34.6,19.3,30.03,South,170,9.6,9.6,53,0.00,,---,0.00,VWS V14.01,2013-01-18 22:14:00,
2013-01-18 17:19:00,34.8,19.5,30.00,West,260,9.3,14.9,53,0.00,,---,0.00,VWS V14.01,2013-01-18 22:19:00,
2013-01-18 17:24:00,34.6,19.3,30.00,SW,215,7.3,9.3,53,0.00,,---,0.00,VWS V14.01,2013-01-18 22:24:00,
2013-01-18 17:29:00,34.6,19.3,30.00,South,170,9.3,9.3,53,0.00,,---,0.00,VWS V14.01,2013-01-18 22:29:00,
2013-01-18 17:34:00,34.6,18.8,30.00,SE,125,14.9,14.9,52,0.00,,---,0.00,VWS V14.01,2013-01-18 22:34:00,
2013-01-18 17:39:00,34.5,18.7,30.00,SW,215,11.9,11.9,52,0.00,,---,0.00,VWS V14.01,2013-01-18 22:39:00,
2013-01-18 17:44:00,34.5,18.7,30.00,SW,215,11.3,11.3,52,0.00,,---,0.00,VWS V14.01,2013-01-18 22:44:00,
2013-01-18 17:49:00,34.5,18.7,30.00,SW,215,14.9,14.9,52,0.00,,---,0.00,VWS V14.01,2013-01-18 22:49:00,
2013-01-18 17:54:00,34.3,18.5,30.00,South,170,11.9,18.2,52,0.00,,---,0.00,VWS V14.01,2013-01-18 22:54:00,
2013-01-18 17:59:00,34.3,18.5,30.00,West,260,12.9,12.9,52,0.00,,---,0.00,VWS V14.01,2013-01-18 22:59:00,
2013-01-18 18:04:00,34.1,18.3,29.97,WSW,238,15.9,18.5,52,0.00,,---,0.00,VWS V14.01,2013-01-18 23:04:00,
2013-01-18 18:10:00,33.9,18.2,29.97,SE,125,11.6,11.6,52,0.00,,---,0.00,VWS V14.01,2013-01-18 23:10:00,
2013-01-18 18:15:00,33.9,18.2,29.97,West,260,5.6,11.6,52,0.00,,---,0.00,VWS V14.01,2013-01-18 23:15:00,
2013-01-18 18:20:00,33.9,18.2,29.97,West,260,15.9,15.9,52,0.00,,---,0.00,VWS V14.01,2013-01-18 23:20:00,
2013-01-18 18:25:00,33.9,18.2,29.97,South,170,11.9,11.9,52,0.00,,---,0.00,VWS V14.01,2013-01-18 23:25:00,
2013-01-18 18:30:00,33.9,18.2,29.97,SW,215,11.9,25.8,52,0.00,,---,0.00,VWS V14.01,2013-01-18 23:30:00,
2013-01-18 18:35:00,33.9,18.2,29.97,ESE,102,6.6,6.6,52,0.00,,---,0.00,VWS V14.01,2013-01-18 23:35:00,
2013-01-18 18:40:00,33.9,18.2,29.97,SW,215,14.9,14.9,52,0.00,,---,0.00,VWS V14.01,2013-01-18 23:40:00,
2013-01-18 18:45:00,33.9,18.2,29.97,SW,215,14.9,14.9,52,0.00,,---,0.00,VWS V14.01,2013-01-18 23:45:00,
2013-01-18 18:50:00,33.9,18.2,29.97,WSW,238,18.2,18.2,52,0.00,,---,0.00,VWS V14.01,2013-01-18 23:50:00,
2013-01-18 18:55:00,33.9,18.2,29.97,South,170,18.5,18.5,52,0.00,,---,0.00,VWS V14.01,2013-01-18 23:55:00,
2013-01-18 19:00:00,33.7,18.0,29.97,SW,215,6.0,26.8,52,0.00,,---,0.00,VWS V14.01,2013-01-19 00:00:00,
2013-01-18 19:05:00,33.9,18.2,29.97,South,170,12.9,12.9,52,0.00,,---,0.00,VWS V14.01,2013-01-19 00:05:00,
2013-01-18 19:10:00,34.3,18.5,29.97,East,80,7.3,12.6,52,0.00,,---,0.00,VWS V14.01,2013-01-19 00:10:00,
2013-01-18 19:15:00,34.3,18.5,29.97,East,80,12.6,12.6,52,0.00,,---,0.00,VWS V14.01,2013-01-19 00:15:00,
2013-01-18 19:20:00,34.1,18.3,29.97,SW,215,14.9,14.9,52,0.00,,---,0.00,VWS V14.01,2013-01-19 00:20:00,
2013-01-18 19:25:00,34.3,18.5,29.97,SW,215,14.6,14.6,52,0.00,,---,0.00,VWS V14.01,2013-01-19 00:25:00,
2013-01-18 19:30:00,33.9,18.2,29.97,South,170,11.6,11.6,52,0.00,,---,0.00,VWS V14.01,2013-01-19 00:30:00,
2013-01-18 19:35:00,34.1,18.3,29.97,SW,215,10.6,11.6,52,0.00,,---,0.00,VWS V14.01,2013-01-19 00:35:00,
2013-01-18 19:40:00,34.3,18.0,29.97,South,170,7.3,19.9,51,0.00,,---,0.00,VWS V14.01,2013-01-19 00:40:00,
2013-01-18 19:46:00,34.3,18.0,29.97,SW,215,18.9,18.9,51,0.00,,---,0.00,VWS V14.01,2013-01-19 00:46:00,
2013-01-18 19:51:00,34.3,18.0,29.97,South,170,9.6,15.2,51,0.00,,---,0.00,VWS V14.01,2013-01-19 00:51:00,
2013-01-18 19:56:00,34.3,18.0,29.97,West,260,11.9,11.9,51,0.00,,---,0.00,VWS V14.01,2013-01-19 00:56:00,
2013-01-18 20:01:00,34.3,18.0,29.97,SW,215,7.9,19.2,51,0.00,,---,0.00,VWS V14.01,2013-01-19 01:01:00,
2013-01-18 20:07:00,34.5,18.2,29.97,SW,215,7.9,9.3,51,0.00,,---,0.00,VWS V14.01,2013-01-19 01:07:00,
2013-01-18 20:12:00,34.5,18.2,29.97,SW,215,15.6,15.6,51,0.00,,---,0.00,VWS V14.01,2013-01-19 01:12:00,
2013-01-18 20:17:00,34.5,18.2,29.97,SW,215,15.6,15.6,51,0.00,,---,0.00,VWS V14.01,2013-01-19 01:17:00,
2013-01-18 20:22:00,34.6,18.4,29.97,South,170,10.9,16.6,51,0.00,,---,0.00,VWS V14.01,2013-01-19 01:22:00,
2013-01-18 20:27:00,34.6,18.4,29.97,SW,215,11.3,21.5,51,0.00,,---,0.00,VWS V14.01,2013-01-19 01:27:00,
2013-01-18 20:32:00,34.8,18.5,29.97,SW,215,12.9,13.2,51,0.00,,---,0.00,VWS V14.01,2013-01-19 01:32:00,
2013-01-18 20:37:00,34.8,18.5,29.97,SW,215,11.9,17.9,51,0.00,,---,0.00,VWS V14.01,2013-01-19 01:37:00,
2013-01-18 20:42:00,34.8,18.5,29.97,West,260,4.6,12.9,51,0.00,,---,0.00,VWS V14.01,2013-01-19 01:42:00,
2013-01-18 20:48:00,34.8,18.5,29.97,SW,215,11.6,11.6,51,0.00,,---,0.00,VWS V14.01,2013-01-19 01:48:00,
2013-01-18 20:53:00,34.8,18.5,29.97,SW,215,8.6,8.6,51,0.00,,---,0.00,VWS V14.01,2013-01-19 01:53:00,
2013-01-18 20:58:00,34.8,18.5,29.97,SW,215,7.9,7.9,51,0.00,,---,0.00,VWS V14.01,2013-01-19 01:58:00,
2013-01-18 21:03:00,34.8,18.5,29.97,WSW,238,15.6,15.6,51,0.00,,---,0.00,VWS V14.01,2013-01-19 02:03:00,
2013-01-18 21:08:00,34.8,18.5,29.97,SW,215,7.9,7.9,51,0.00,,---,0.00,VWS V14.01,2013-01-19 02:08:00,
2013-01-18 21:13:00,35.0,18.2,29.97,West,260,9.3,21.9,50,0.00,,---,0.00,VWS V14.01,2013-01-19 02:13:00,
2013-01-18 21:18:00,35.0,18.2,29.97,SE,125,7.3,7.3,50,0.00,,---,0.00,VWS V14.01,2013-01-19 02:18:00,
2013-01-18 21:23:00,34.8,18.5,29.97,WSW,238,11.3,19.5,51,0.00,,---,0.00,VWS V14.01,2013-01-19 02:23:00,
2013-01-18 21:28:00,34.8,18.5,29.97,SW,215,4.6,4.6,51,0.00,,---,0.00,VWS V14.01,2013-01-19 02:28:00,
2013-01-18 21:33:00,35.0,18.2,29.97,SW,215,14.2,14.2,50,0.00,,---,0.00,VWS V14.01,2013-01-19 02:33:00,
2013-01-18 21:38:00,35.0,18.7,29.97,SW,215,5.6,5.6,51,0.00,,---,0.00,VWS V14.01,2013-01-19 02:38:00,
2013-01-18 21:43:00,35.2,18.9,29.97,SW,215,7.9,18.9,51,0.00,,---,0.00,VWS V14.01,2013-01-19 02:43:00,
2013-01-18 21:48:00,35.0,18.7,29.97,West,260,9.9,9.9,51,0.00,,---,0.00,VWS V14.01,2013-01-19 02:48:00,
2013-01-18 21:53:00,35.0,18.7,29.97,WSW,238,8.3,9.3,51,0.00,,---,0.00,VWS V14.01,2013-01-19 02:53:00,
2013-01-18 21:59:00,35.0,18.7,29.97,South,170,11.9,11.9,51,0.00,,---,0.00,VWS V14.01,2013-01-19 02:59:00,
2013-01-18 22:04:00,34.8,18.5,29.97,WSW,238,7.3,7.3,51,0.00,,---,0.00,VWS V14.01,2013-01-19 03:04:00,
2013-01-18 22:09:00,35.0,18.7,29.97,SW,215,10.9,10.9,51,0.00,,---,0.00,VWS V14.01,2013-01-19 03:09:00,
2013-01-18 22:14:00,35.0,18.7,29.97,WSW,238,5.6,5.6,51,0.00,,---,0.00,VWS V14.01,2013-01-19 03:14:00,
2013-01-18 22:19:00,35.0,18.7,29.94,WSW,238,4.3,4.3,51,0.00,,---,0.00,VWS V14.01,2013-01-19 03:19:00,
2013-01-18 22:24:00,35.2,18.9,29.94,SW,215,8.9,8.9,51,0.00,,---,0.00,VWS V14.01,2013-01-19 03:24:00,
2013-01-18 22:29:00,35.2,18.9,29.94,SW,215,8.9,8.9,51,0.00,,---,0.00,VWS V14.01,2013-01-19 03:29:00,
2013-01-18 22:34:00,35.5,19.2,29.94,SW,215,10.9,10.9,51,0.00,,---,0.00,VWS V14.01,2013-01-19 03:34:00,
2013-01-18 22:39:00,35.7,19.4,29.94,SW,215,9.6,9.6,51,0.00,,---,0.00,VWS V14.01,2013-01-19 03:39:00,
2013-01-18 22:45:00,35.9,19.5,29.94,SW,215,12.9,12.9,51,0.00,,---,0.00,VWS V14.01,2013-01-19 03:45:00,
2013-01-18 22:50:00,36.1,19.7,29.94,South,170,5.3,9.3,51,0.00,,---,0.00,VWS V14.01,2013-01-19 03:50:00,
2013-01-18 22:55:00,36.3,19.9,29.94,SW,215,8.9,8.9,51,0.00,,---,0.00,VWS V14.01,2013-01-19 03:55:00,
2013-01-18 23:00:00,36.4,20.0,29.94,SW,215,8.3,17.6,51,0.00,,---,0.00,VWS V14.01,2013-01-19 04:00:00,
2013-01-18 23:05:00,36.3,19.9,29.94,SW,215,8.6,9.6,51,0.00,,---,0.00,VWS V14.01,2013-01-19 04:05:00,
2013-01-18 23:10:00,36.6,20.2,29.94,South,170,6.3,6.3,51,0.00,,---,0.00,VWS V14.01,2013-01-19 04:10:00,
2013-01-18 23:15:00,36.8,20.4,29.94,SW,215,18.2,18.2,51,0.00,,---,0.00,VWS V14.01,2013-01-19 04:15:00,
2013-01-18 23:20:00,36.8,20.4,29.94,SW,215,19.2,19.2,51,0.00,,---,0.00,VWS V14.01,2013-01-19 04:20:00,
2013-01-18 23:26:00,36.8,20.4,29.94,SW,215,11.9,11.9,51,0.00,,---,0.00,VWS V14.01,2013-01-19 04:26:00,
2013-01-18 23:31:00,37.0,20.5,29.94,SW,215,14.2,14.2,51,0.00,,---,0.00,VWS V14.01,2013-01-19 04:31:00,
2013-01-18 23:36:00,37.0,20.5,29.91,South,170,4.6,5.6,51,0.00,,---,0.00,VWS V14.01,2013-01-19 04:36:00,
2013-01-18 23:41:00,37.2,20.7,29.91,South,170,6.3,6.3,51,0.00,,---,0.00,VWS V14.01,2013-01-19 04:41:00,
2013-01-18 23:47:00,37.3,20.9,29.91,SW,215,14.6,14.6,51,0.00,,---,0.00,VWS V14.01,2013-01-19 04:47:00,
2013-01-18 23:52:00,37.2,20.7,29.91,SW,215,17.6,17.6,51,0.00,,---,0.00,VWS V14.01,2013-01-19 04:52:00,
2013-01-18 23:57:00,37.3,20.9,29.91,SW,215,14.2,15.6,51,0.00,,---,0.00,VWS V14.01,2013-01-19 04:57:00,